User: anonymous   Login
Location: Olmeneta
(45.2333°N, 10.0167°E)
Time: 16:47:48
(UTC+00:00)
Language:

deb Kosmos-1110 - Orbit

View from above orbital plane
View from above orbital plane
View from above satellite
View from above satellite

Ground track
Ground track

The orbit data is extracted from the following two-line orbital elements,

1 14866U 79060C   21267.93787934  .00001462  00000-0  16682-3 0  9994
2 14866  74.0367  77.2252 0001417 238.5673 247.0457 14.87115859   341
Epoch (UTC): 24 September 2021 22:30:32
Eccentricity: 0.0001417
inclination: 74.0367°
perigee height: 606 km
apogee height: 608 km
right ascension of ascending node: 77.2252°
argument of perigee: 238.5673°
revolutions per day: 14.87115859
mean anomaly at epoch: 247.0457°
orbit number at epoch: 34

The dashed part of the orbit path shows where the satellite is in the earth's shadow,  

DLR